Time,TemperatureF,DewpointF,PressureIn,WindDirection,WindDirectionDegrees,WindSpeedMPH,WindSpeedGustMPH,Humidity,HourlyPrecipIn,Conditions,Clouds,dailyrainin,SolarRadiationWatts/m^2,SoftwareType,DateUTC
2013-06-18 00:01:00,57.9,52.8,29.95,NW,313,0.0,0.0,83,0.00,,CLR,0.00,0.00,VWS V14.01,2013-06-18 05:01:00,
2013-06-18 00:07:00,57.8,52.7,29.95,NW,313,0.0,0.0,83,0.00,,CLR,0.00,0.00,VWS V14.01,2013-06-18 05:07:00,
2013-06-18 00:12:00,57.7,52.6,29.95,NW,313,0.0,0.0,83,0.00,,CLR,0.00,0.00,VWS V14.01,2013-06-18 05:12:00,
2013-06-18 00:17:00,57.6,52.5,29.96,East,94,0.0,2.0,83,0.00,,CLR,0.00,0.00,VWS V14.01,2013-06-18 05:17:00,
2013-06-18 00:22:00,57.5,52.7,29.96,East,94,0.0,2.0,84,0.00,,CLR,0.00,0.00,VWS V14.01,2013-06-18 05:22:00,
2013-06-18 00:27:00,57.4,52.6,29.95,East,94,0.0,2.0,84,0.00,,CLR,0.00,0.00,VWS V14.01,2013-06-18 05:27:00,
2013-06-18 00:32:00,57.3,52.5,29.95,East,94,0.0,0.0,84,0.00,,CLR,0.00,0.00,VWS V14.01,2013-06-18 05:32:00,
2013-06-18 00:37:00,57.2,52.4,29.95,East,94,0.0,1.0,84,0.00,,CLR,0.00,0.00,VWS V14.01,2013-06-18 05:37:00,
2013-06-18 00:42:00,57.1,52.3,29.95,East,94,0.0,1.0,84,0.00,,CLR,0.00,0.00,VWS V14.01,2013-06-18 05:42:00,
2013-06-18 00:47:00,57.0,52.2,29.95,East,94,0.0,1.0,84,0.00,,CLR,0.00,0.00,VWS V14.01,2013-06-18 05:47:00,
2013-06-18 00:52:00,56.9,52.4,29.95,East,98,0.0,2.0,85,0.00,,CLR,0.00,0.00,VWS V14.01,2013-06-18 05:52:00,
2013-06-18 00:57:00,56.9,52.4,29.95,East,98,0.0,2.0,85,0.00,,CLR,0.00,0.00,VWS V14.01,2013-06-18 05:57:00,
2013-06-18 01:02:00,56.8,52.3,29.95,East,98,0.0,0.0,85,0.00,,BKN110,0.00,0.00,VWS V14.01,2013-06-18 06:02:00,
2013-06-18 01:07:00,56.8,52.3,29.95,East,98,0.0,1.0,85,0.00,,BKN110,0.00,0.00,VWS V14.01,2013-06-18 06:07:00,
2013-06-18 01:12:00,56.8,52.3,29.96,East,98,0.0,1.0,85,0.00,,BKN110,0.00,0.00,VWS V14.01,2013-06-18 06:12:00,
2013-06-18 01:17:00,56.8,52.3,29.95,East,98,0.0,1.0,85,0.00,,BKN110,0.00,0.00,VWS V14.01,2013-06-18 06:17:00,
2013-06-18 01:22:00,56.8,52.3,29.96,East,98,0.0,1.0,85,0.00,,OVC110,0.00,0.00,VWS V14.01,2013-06-18 06:22:00,
2013-06-18 01:27:00,56.8,52.3,29.96,East,98,0.0,1.0,85,0.00,,OVC110,0.00,0.00,VWS V14.01,2013-06-18 06:27:00,
2013-06-18 01:32:00,56.8,52.3,29.97,SSE,165,0.0,1.0,85,0.00,,OVC110,0.00,0.00,VWS V14.01,2013-06-18 06:32:00,
2013-06-18 01:37:00,56.8,52.3,29.97,East,92,0.0,1.0,85,0.00,,OVC110,0.00,0.00,VWS V14.01,2013-06-18 06:37:00,
2013-06-18 01:42:00,56.9,52.4,29.97,East,92,0.0,1.0,85,0.00,,OVC110,0.00,0.00,VWS V14.01,2013-06-18 06:42:00,
2013-06-18 01:47:00,56.9,52.4,29.97,East,92,0.0,1.0,85,0.00,,OVC110,0.00,0.00,VWS V14.01,2013-06-18 06:47:00,
2013-06-18 01:52:00,56.9,52.4,29.97,ENE,63,0.0,3.0,85,0.00,,OVC110,0.00,0.00,VWS V14.01,2013-06-18 06:52:00,
2013-06-18 01:57:00,56.9,52.4,29.97,ENE,63,0.0,3.0,85,0.00,,OVC110,0.00,0.00,VWS V14.01,2013-06-18 06:57:00,
2013-06-18 02:02:00,56.9,52.4,29.97,SW,225,1.0,2.0,85,0.00,,BKN017,0.00,0.00,VWS V14.01,2013-06-18 07:02:00,
2013-06-18 02:07:00,56.8,52.3,29.97,SE,136,0.0,2.0,85,0.00,,BKN017,0.00,0.00,VWS V14.01,2013-06-18 07:07:00,
2013-06-18 02:12:00,56.8,52.3,29.97,SE,136,0.0,2.0,85,0.00,,BKN017,0.00,0.00,VWS V14.01,2013-06-18 07:12:00,
2013-06-18 02:17:00,56.8,52.3,29.97,SE,136,0.0,2.0,85,0.00,,BKN017,0.00,0.00,VWS V14.01,2013-06-18 07:17:00,
2013-06-18 02:22:00,56.8,52.7,29.97,SE,136,0.0,2.0,86,0.00,,BKN017,0.00,0.00,VWS V14.01,2013-06-18 07:22:00,
2013-06-18 02:27:00,56.9,52.8,29.97,SE,136,0.0,2.0,86,0.00,,BKN017,0.00,0.00,VWS V14.01,2013-06-18 07:27:00,
2013-06-18 02:32:00,56.9,52.8,29.97,SSE,155,0.0,0.0,86,0.00,,BKN017,0.00,0.00,VWS V14.01,2013-06-18 07:32:00,
2013-06-18 02:37:00,56.9,52.8,29.97,SSE,155,0.0,1.0,86,0.00,,BKN017,0.00,0.00,VWS V14.01,2013-06-18 07:37:00,
2013-06-18 02:42:00,56.9,52.8,29.97,SSE,155,0.0,1.0,86,0.00,,BKN017,0.00,0.00,VWS V14.01,2013-06-18 07:42:00,
2013-06-18 02:47:00,56.8,52.7,29.97,SSE,155,0.0,1.0,86,0.00,,BKN017,0.00,0.00,VWS V14.01,2013-06-18 07:47:00,
2013-06-18 02:52:00,56.9,52.8,29.97,WSW,239,1.0,1.0,86,0.00,,BKN017,0.00,0.00,VWS V14.01,2013-06-18 07:52:00,
2013-06-18 02:57:00,56.8,52.7,29.97,WSW,239,0.0,1.0,86,0.00,,BKN017,0.00,0.00,VWS V14.01,2013-06-18 07:57:00,
2013-06-18 03:02:00,56.8,53.0,29.98,WSW,239,0.0,1.0,87,0.00,,OVC028,0.00,0.00,VWS V14.01,2013-06-18 08:02:00,
2013-06-18 03:07:00,56.8,53.0,29.97,WSW,239,0.0,1.0,87,0.00,,OVC028,0.00,0.00,VWS V14.01,2013-06-18 08:07:00,
2013-06-18 03:12:00,56.8,53.0,29.97,WSW,239,0.0,1.0,87,0.00,,OVC028,0.00,0.00,VWS V14.01,2013-06-18 08:12:00,
2013-06-18 03:17:00,56.8,53.0,29.97,WSW,239,1.0,1.0,87,0.00,,OVC028,0.00,0.00,VWS V14.01,2013-06-18 08:17:00,
2013-06-18 03:22:00,56.8,53.0,29.97,SSE,161,1.0,1.0,87,0.00,,OVC028,0.00,0.00,VWS V14.01,2013-06-18 08:22:00,
2013-06-18 03:27:00,56.8,53.0,29.97,NW,311,0.0,1.0,87,0.00,,OVC028,0.00,0.00,VWS V14.01,2013-06-18 08:27:00,
2013-06-18 03:32:00,56.8,53.0,29.97,NW,311,0.0,1.0,87,0.00,,OVC028,0.00,0.00,VWS V14.01,2013-06-18 08:32:00,
2013-06-18 03:37:00,56.8,53.0,29.97,NW,311,0.0,1.0,87,0.00,,OVC028,0.00,0.00,VWS V14.01,2013-06-18 08:37:00,
2013-06-18 03:42:00,56.8,53.0,29.97,NW,311,0.0,1.0,87,0.00,,OVC028,0.00,0.00,VWS V14.01,2013-06-18 08:42:00,
2013-06-18 03:47:00,56.8,53.0,29.97,NW,304,0.0,2.0,87,0.00,,OVC028,0.00,0.00,VWS V14.01,2013-06-18 08:47:00,
2013-06-18 03:52:00,56.7,52.9,29.97,NW,304,0.0,2.0,87,0.00,,OVC028,0.00,0.00,VWS V14.01,2013-06-18 08:52:00,
2013-06-18 03:57:00,56.7,52.9,29.97,NW,306,0.0,2.0,87,0.00,,OVC028,0.00,0.00,VWS V14.01,2013-06-18 08:57:00,
2013-06-18 04:02:00,56.7,52.9,29.97,NW,306,0.0,0.0,87,0.00,,SCT021,0.00,0.00,VWS V14.01,2013-06-18 09:02:00,
2013-06-18 04:07:00,56.7,52.9,29.98,WNW,303,0.0,1.0,87,0.00,,SCT021,0.00,0.00,VWS V14.01,2013-06-18 09:07:00,
2013-06-18 04:12:00,56.6,52.5,29.98,WNW,303,0.0,1.0,86,0.00,,SCT021,0.00,0.00,VWS V14.01,2013-06-18 09:12:00,
2013-06-18 04:17:00,56.6,52.5,29.98,WNW,303,0.0,1.0,86,0.00,,SCT021,0.00,0.00,VWS V14.01,2013-06-18 09:17:00,
2013-06-18 04:22:00,56.6,52.5,29.98,WNW,303,0.0,1.0,86,0.00,,BKN018,0.00,0.00,VWS V14.01,2013-06-18 09:22:00,
2013-06-18 04:27:00,56.5,52.4,29.98,WNW,303,0.0,1.0,86,0.00,,BKN018,0.00,0.00,VWS V14.01,2013-06-18 09:27:00,
2013-06-18 04:32:00,56.4,52.0,29.98,WNW,303,0.0,0.0,85,0.00,,BKN018,0.00,0.00,VWS V14.01,2013-06-18 09:32:00,
2013-06-18 04:37:00,56.2,51.8,29.98,WNW,303,0.0,0.0,85,0.00,,BKN018,0.00,0.00,VWS V14.01,2013-06-18 09:37:00,
2013-06-18 04:42:00,56.1,51.7,29.98,WNW,303,0.0,0.0,85,0.00,,BKN018,0.00,0.00,VWS V14.01,2013-06-18 09:42:00,
2013-06-18 04:47:00,55.9,51.5,29.98,WNW,303,0.0,0.0,85,0.00,,BKN018,0.00,0.00,VWS V14.01,2013-06-18 09:47:00,
2013-06-18 04:52:00,55.5,51.1,29.99,WNW,303,0.0,1.0,85,0.00,,BKN018,0.00,0.00,VWS V14.01,2013-06-18 09:52:00,
2013-06-18 04:57:00,55.4,51.3,29.99,WNW,303,0.0,1.0,86,0.00,,BKN018,0.00,0.00,VWS V14.01,2013-06-18 09:57:00,
2013-06-18 05:02:00,55.3,50.6,30.00,WNW,303,0.0,0.0,84,0.00,,BKN018,0.00,0.00,VWS V14.01,2013-06-18 10:02:00,
2013-06-18 05:07:00,55.2,50.5,30.00,WNW,303,0.0,0.0,84,0.00,,BKN018,0.00,0.00,VWS V14.01,2013-06-18 10:07:00,
2013-06-18 05:12:00,55.3,50.2,30.00,WNW,303,0.0,1.0,83,0.00,,BKN018,0.00,0.00,VWS V14.01,2013-06-18 10:12:00,
2013-06-18 05:17:00,55.4,50.7,30.00,WNW,303,0.0,1.0,84,0.00,,BKN018,0.00,0.00,VWS V14.01,2013-06-18 10:17:00,
2013-06-18 05:22:00,55.5,50.8,30.00,WNW,303,0.0,1.0,84,0.00,,OVC018,0.00,0.00,VWS V14.01,2013-06-18 10:22:00,
2013-06-18 05:27:00,55.6,50.8,30.00,WNW,303,0.0,1.0,84,0.00,,OVC018,0.00,0.00,VWS V14.01,2013-06-18 10:27:00,
2013-06-18 05:32:00,55.7,50.6,30.01,WNW,303,0.0,0.0,83,0.00,,OVC018,0.00,0.00,VWS V14.01,2013-06-18 10:32:00,
2013-06-18 05:37:00,55.8,50.7,30.01,WNW,303,0.0,0.0,83,0.00,,OVC018,0.00,0.00,VWS V14.01,2013-06-18 10:37:00,
2013-06-18 05:42:00,55.9,50.8,30.01,WNW,303,0.0,0.0,83,0.00,,OVC018,0.00,5.00,VWS V14.01,2013-06-18 10:42:00,
2013-06-18 05:47:00,56.0,50.9,30.01,WNW,303,0.0,1.0,83,0.00,,OVC018,0.00,9.00,VWS V14.01,2013-06-18 10:47:00,
2013-06-18 05:52:00,56.1,51.0,30.02,WNW,303,0.0,1.0,83,0.00,,OVC018,0.00,14.00,VWS V14.01,2013-06-18 10:52:00,
2013-06-18 05:57:00,56.2,51.1,30.02,WNW,303,0.0,1.0,83,0.00,,OVC018,0.00,16.00,VWS V14.01,2013-06-18 10:57:00,
2013-06-18 06:02:00,56.3,51.2,30.02,WNW,303,0.0,0.0,83,0.00,,OVC018,0.00,18.00,VWS V14.01,2013-06-18 11:02:00,
2013-06-18 06:07:00,56.4,51.3,30.02,WNW,303,0.0,0.0,83,0.00,,OVC018,0.00,19.00,VWS V14.01,2013-06-18 11:07:00,
2013-06-18 06:12:00,56.4,51.3,30.02,WNW,303,0.0,0.0,83,0.00,,OVC018,0.00,19.00,VWS V14.01,2013-06-18 11:12:00,
2013-06-18 06:17:00,56.5,51.4,30.02,WNW,303,0.0,0.0,83,0.00,,OVC018,0.00,21.00,VWS V14.01,2013-06-18 11:17:00,
2013-06-18 06:22:00,56.6,51.8,30.02,WNW,303,0.0,0.0,84,0.00,,OVC018,0.00,30.00,VWS V14.01,2013-06-18 11:22:00,
2013-06-18 06:27:00,56.6,51.5,30.03,WNW,303,0.0,0.0,83,0.00,,OVC018,0.00,33.00,VWS V14.01,2013-06-18 11:27:00,
2013-06-18 06:32:00,56.7,51.3,30.03,WNW,303,0.0,0.0,82,0.00,,OVC018,0.00,40.00,VWS V14.01,2013-06-18 11:32:00,
2013-06-18 06:37:00,56.7,51.6,30.02,WNW,303,0.0,1.0,83,0.00,,OVC018,0.00,33.00,VWS V14.01,2013-06-18 11:37:00,
2013-06-18 06:42:00,56.6,51.2,30.02,WNW,303,0.0,1.0,82,0.00,,OVC018,0.00,30.00,VWS V14.01,2013-06-18 11:42:00,
2013-06-18 06:47:00,56.7,51.6,30.02,WNW,303,0.0,1.0,83,0.00,,OVC018,0.00,63.00,VWS V14.01,2013-06-18 11:47:00,
2013-06-18 06:52:00,56.7,51.3,30.02,WNW,303,0.0,1.0,82,0.00,,OVC018,0.00,42.00,VWS V14.01,2013-06-18 11:52:00,
2013-06-18 06:57:00,56.7,51.3,30.02,WNW,303,0.0,1.0,82,0.00,,OVC018,0.00,42.00,VWS V14.01,2013-06-18 11:57:00,
2013-06-18 07:03:00,56.8,51.4,30.03,WNW,303,0.0,1.0,82,0.00,,OVC033,0.00,141.00,VWS V14.01,2013-06-18 12:03:00,
2013-06-18 07:08:00,56.9,51.5,30.03,WNW,303,0.0,1.0,82,0.00,,OVC033,0.00,118.00,VWS V14.01,2013-06-18 12:08:00,
2013-06-18 07:13:00,57.1,51.7,30.03,SSE,166,0.0,2.0,82,0.00,,OVC033,0.00,111.00,VWS V14.01,2013-06-18 12:13:00,
2013-06-18 07:18:00,57.3,51.9,30.03,SSE,168,0.0,2.0,82,0.00,,OVC033,0.00,111.00,VWS V14.01,2013-06-18 12:18:00,
2013-06-18 07:23:00,57.4,51.6,30.03,SSE,168,0.0,2.0,81,0.00,,OVC033,0.00,114.00,VWS V14.01,2013-06-18 12:23:00,
2013-06-18 07:28:00,57.5,51.7,30.03,SSE,168,0.0,2.0,81,0.00,,OVC033,0.00,113.00,VWS V14.01,2013-06-18 12:28:00,
2013-06-18 07:33:00,57.5,51.7,30.03,South,169,0.0,0.0,81,0.00,,OVC033,0.00,130.00,VWS V14.01,2013-06-18 12:33:00,
2013-06-18 07:38:00,57.6,51.8,30.03,South,169,0.0,1.0,81,0.00,,OVC033,0.00,141.00,VWS V14.01,2013-06-18 12:38:00,
2013-06-18 07:43:00,57.6,51.8,30.03,South,169,0.0,1.0,81,0.00,,OVC033,0.00,130.00,VWS V14.01,2013-06-18 12:43:00,
2013-06-18 07:48:00,57.7,51.6,30.03,South,169,0.0,1.0,80,0.00,,OVC033,0.00,146.00,VWS V14.01,2013-06-18 12:48:00,
2013-06-18 07:53:00,57.7,51.9,30.03,South,169,0.0,1.0,81,0.00,,OVC033,0.00,160.00,VWS V14.01,2013-06-18 12:53:00,
2013-06-18 07:58:00,57.7,51.6,30.03,South,169,0.0,1.0,80,0.00,,OVC033,0.00,167.00,VWS V14.01,2013-06-18 12:58:00,
2013-06-18 08:03:00,57.7,51.6,30.03,WNW,292,0.0,2.0,80,0.00,,OVC033,0.00,171.00,VWS V14.01,2013-06-18 13:03:00,
2013-06-18 08:08:00,57.7,51.6,30.03,WNW,292,0.0,2.0,80,0.00,,OVC033,0.00,163.00,VWS V14.01,2013-06-18 13:08:00,
2013-06-18 08:13:00,57.7,51.6,30.03,WNW,292,0.0,2.0,80,0.00,,OVC033,0.00,167.00,VWS V14.01,2013-06-18 13:13:00,
2013-06-18 08:18:00,57.8,52.0,30.04,WNW,292,0.0,2.0,81,0.00,,OVC033,0.00,165.00,VWS V14.01,2013-06-18 13:18:00,
2013-06-18 08:23:00,57.9,51.8,30.04,South,184,0.0,2.0,80,0.00,,CLR,0.00,195.00,VWS V14.01,2013-06-18 13:23:00,
2013-06-18 08:28:00,58.0,52.2,30.04,ESE,108,0.0,2.0,81,0.00,,CLR,0.00,192.00,VWS V14.01,2013-06-18 13:28:00,
2013-06-18 08:33:00,58.1,52.0,30.04,NE,44,0.0,0.0,80,0.00,,CLR,0.00,207.00,VWS V14.01,2013-06-18 13:33:00,
2013-06-18 08:38:00,58.3,51.8,30.04,NE,44,0.0,1.0,79,0.00,,CLR,0.00,236.00,VWS V14.01,2013-06-18 13:38:00,
2013-06-18 08:43:00,58.4,51.6,30.04,NE,44,0.0,1.0,78,0.00,,BKN016,0.00,220.00,VWS V14.01,2013-06-18 13:43:00,
2013-06-18 08:48:00,58.5,51.3,30.04,NNW,329,0.0,3.0,77,0.00,,BKN016,0.00,251.00,VWS V14.01,2013-06-18 13:48:00,
2013-06-18 08:53:00,58.6,51.1,30.04,NE,51,0.0,3.0,76,0.00,,BKN016,0.00,218.00,VWS V14.01,2013-06-18 13:53:00,
2013-06-18 08:58:00,58.8,50.9,30.05,SSE,163,0.0,3.0,75,0.00,,BKN016,0.00,206.00,VWS V14.01,2013-06-18 13:58:00,
2013-06-18 09:03:00,58.8,51.3,30.04,SW,235,2.0,3.0,76,0.00,,OVC016,0.00,234.00,VWS V14.01,2013-06-18 14:03:00,
2013-06-18 09:08:00,58.8,51.3,30.04,SW,227,0.0,3.0,76,0.00,,OVC016,0.00,251.00,VWS V14.01,2013-06-18 14:08:00,
2013-06-18 09:13:00,58.9,50.6,30.04,NE,53,0.0,3.0,74,0.00,,OVC016,0.00,315.00,VWS V14.01,2013-06-18 14:13:00,
2013-06-18 09:18:00,59.1,50.5,30.05,WNW,303,0.0,3.0,73,0.00,,OVC016,0.00,309.00,VWS V14.01,2013-06-18 14:18:00,
2013-06-18 09:23:00,59.4,51.1,30.05,NNW,328,0.0,3.0,74,0.00,,OVC016,0.00,295.00,VWS V14.01,2013-06-18 14:23:00,
2013-06-18 09:28:00,59.7,51.0,30.05,NNW,328,0.0,3.0,73,0.00,,OVC016,0.00,309.00,VWS V14.01,2013-06-18 14:28:00,
2013-06-18 09:33:00,59.9,50.5,30.05,NNW,328,0.0,1.0,71,0.00,,OVC016,0.00,274.00,VWS V14.01,2013-06-18 14:33:00,
2013-06-18 09:38:00,60.1,50.7,30.05,NNW,327,0.0,1.0,71,0.00,,OVC016,0.00,297.00,VWS V14.01,2013-06-18 14:38:00,
2013-06-18 09:43:00,60.2,51.2,30.05,NNW,327,0.0,1.0,72,0.00,,OVC016,0.00,248.00,VWS V14.01,2013-06-18 14:43:00,
2013-06-18 09:48:00,60.1,51.1,30.05,NNW,344,0.0,3.0,72,0.00,,OVC016,0.00,302.00,VWS V14.01,2013-06-18 14:48:00,
2013-06-18 09:53:00,60.3,50.9,30.05,NNW,344,0.0,3.0,71,0.00,,OVC016,0.00,325.00,VWS V14.01,2013-06-18 14:53:00,
2013-06-18 09:58:00,60.4,50.6,30.06,NNW,344,0.0,3.0,70,0.00,,OVC016,0.00,308.00,VWS V14.01,2013-06-18 14:58:00,
2013-06-18 10:03:00,60.6,50.8,30.05,NNW,344,0.0,1.0,70,0.00,,OVC020,0.00,348.00,VWS V14.01,2013-06-18 15:03:00,
2013-06-18 10:08:00,60.9,51.5,30.05,SW,227,1.0,2.0,71,0.00,,OVC020,0.00,334.00,VWS V14.01,2013-06-18 15:08:00,
2013-06-18 10:13:00,61.0,50.4,30.05,SW,227,1.0,2.0,68,0.00,,OVC020,0.00,364.00,VWS V14.01,2013-06-18 15:13:00,
2013-06-18 10:18:00,61.2,51.0,30.05,NNE,30,0.0,4.0,69,0.00,,OVC020,0.00,406.00,VWS V14.01,2013-06-18 15:18:00,
2013-06-18 10:23:00,61.4,48.7,30.05,NNE,30,0.0,4.0,63,0.00,,OVC020,0.00,541.00,VWS V14.01,2013-06-18 15:23:00,
2013-06-18 10:28:00,62.0,48.4,30.04,East,84,0.0,4.0,61,0.00,,OVC020,0.00,744.00,VWS V14.01,2013-06-18 15:28:00,
2013-06-18 10:33:00,62.7,49.5,30.04,East,84,0.0,3.0,62,0.00,,OVC020,0.00,809.00,VWS V14.01,2013-06-18 15:33:00,
2013-06-18 10:38:00,63.5,48.9,30.04,South,169,0.0,6.0,59,0.00,,OVC020,0.00,814.00,VWS V14.01,2013-06-18 15:38:00,
2013-06-18 10:43:00,64.2,50.0,30.04,WNW,289,0.0,6.0,60,0.00,,OVC020,0.00,824.00,VWS V14.01,2013-06-18 15:43:00,
2013-06-18 10:48:00,64.8,48.3,30.04,East,90,0.0,6.0,55,0.00,,OVC020,0.00,835.00,VWS V14.01,2013-06-18 15:48:00,
2013-06-18 10:53:00,65.3,49.2,30.05,West,280,0.0,6.0,56,0.00,,OVC020,0.00,842.00,VWS V14.01,2013-06-18 15:53:00,
2013-06-18 10:58:00,65.6,48.0,30.04,WSW,246,0.0,6.0,53,0.00,,OVC020,0.00,853.00,VWS V14.01,2013-06-18 15:58:00,
2013-06-18 11:03:00,65.9,47.8,30.04,ESE,120,0.0,3.0,52,0.00,,OVC030,0.00,858.00,VWS V14.01,2013-06-18 16:03:00,
2013-06-18 11:08:00,66.1,49.5,30.04,South,170,0.0,3.0,55,0.00,,OVC030,0.00,870.00,VWS V14.01,2013-06-18 16:08:00,
2013-06-18 11:13:00,66.3,48.7,30.04,SSW,207,0.0,3.0,53,0.00,,OVC030,0.00,849.00,VWS V14.01,2013-06-18 16:13:00,
2013-06-18 11:18:00,66.9,48.7,30.04,NNW,333,2.0,3.0,52,0.00,,OVC030,0.00,882.00,VWS V14.01,2013-06-18 16:18:00,
2013-06-18 11:23:00,67.1,43.9,30.04,East,90,0.0,4.0,43,0.00,,OVC030,0.00,895.00,VWS V14.01,2013-06-18 16:23:00,
2013-06-18 11:28:00,67.1,46.8,30.04,SSW,208,2.0,4.0,48,0.00,,OVC030,0.00,904.00,VWS V14.01,2013-06-18 16:28:00,
2013-06-18 11:33:00,67.3,48.6,30.04,SSW,199,1.0,5.0,51,0.00,,OVC030,0.00,912.00,VWS V14.01,2013-06-18 16:33:00,
2013-06-18 11:38:00,67.7,45.0,30.04,SSE,164,0.0,5.0,44,0.00,,OVC030,0.00,918.00,VWS V14.01,2013-06-18 16:38:00,
2013-06-18 11:43:00,68.0,45.3,30.04,West,267,0.0,5.0,44,0.00,,OVC030,0.00,925.00,VWS V14.01,2013-06-18 16:43:00,
2013-06-18 11:48:00,68.6,49.2,30.04,West,277,0.0,5.0,50,0.00,,OVC030,0.00,933.00,VWS V14.01,2013-06-18 16:48:00,
2013-06-18 11:53:00,68.8,44.2,30.04,ENE,68,0.0,5.0,41,0.00,,OVC030,0.00,944.00,VWS V14.01,2013-06-18 16:53:00,
2013-06-18 11:58:00,68.9,44.2,30.04,NE,51,3.0,5.0,41,0.00,,OVC030,0.00,947.00,VWS V14.01,2013-06-18 16:58:00,
2013-06-18 12:03:00,68.8,46.6,30.04,South,182,0.0,4.0,45,0.00,,SCT032,0.00,949.00,VWS V14.01,2013-06-18 17:03:00,
2013-06-18 12:09:00,69.0,49.1,30.04,West,268,0.0,5.0,49,0.00,,SCT032,0.00,954.00,VWS V14.01,2013-06-18 17:09:00,
2013-06-18 12:14:00,69.0,46.8,30.04,ENE,57,0.0,5.0,45,0.00,,SCT032,0.00,962.00,VWS V14.01,2013-06-18 17:14:00,
2013-06-18 12:19:00,69.2,47.0,30.04,ENE,63,0.0,5.0,45,0.00,,SCT032,0.00,963.00,VWS V14.01,2013-06-18 17:19:00,
2013-06-18 12:24:00,68.8,44.2,30.04,East,94,0.0,5.0,41,0.00,,SCT032,0.00,970.00,VWS V14.01,2013-06-18 17:24:00,
2013-06-18 12:29:00,68.6,42.0,30.04,South,182,5.0,6.0,38,0.00,,SCT032,0.00,972.00,VWS V14.01,2013-06-18 17:29:00,
2013-06-18 12:33:00,68.6,47.6,30.04,SSW,209,0.0,7.0,47,0.00,,SCT032,0.00,976.00,VWS V14.01,2013-06-18 17:33:00,
2013-06-18 12:39:00,68.9,44.9,30.04,South,179,0.0,8.0,42,0.00,,SCT032,0.00,977.00,VWS V14.01,2013-06-18 17:39:00,
2013-06-18 12:44:00,69.1,45.7,30.04,East,100,1.0,8.0,43,0.00,,SCT032,0.00,976.00,VWS V14.01,2013-06-18 17:44:00,
2013-06-18 12:49:00,69.2,47.6,30.03,South,186,0.0,8.0,46,0.00,,SCT032,0.00,981.00,VWS V14.01,2013-06-18 17:49:00,
2013-06-18 12:54:00,69.6,49.1,30.03,SE,125,0.0,8.0,48,0.00,,SCT032,0.00,984.00,VWS V14.01,2013-06-18 17:54:00,
2013-06-18 12:59:00,69.9,43.8,30.03,SE,127,2.0,8.0,39,0.00,,SCT032,0.00,986.00,VWS V14.01,2013-06-18 17:59:00,
2013-06-18 13:04:00,69.9,43.8,30.03,NE,45,0.0,2.0,39,0.00,,CLR,0.00,990.00,VWS V14.01,2013-06-18 18:04:00,
2013-06-18 13:09:00,70.2,50.7,30.03,North,11,1.0,2.0,50,0.00,,CLR,0.00,990.00,VWS V14.01,2013-06-18 18:09:00,
2013-06-18 13:13:00,70.6,45.8,30.03,West,260,0.0,3.0,41,0.00,,CLR,0.00,993.00,VWS V14.01,2013-06-18 18:13:00,
2013-06-18 13:19:00,71.0,48.6,30.03,WNW,294,3.0,4.0,45,0.00,,CLR,0.00,993.00,VWS V14.01,2013-06-18 18:19:00,
2013-06-18 13:24:00,70.9,48.5,30.03,WNW,302,3.0,4.0,45,0.00,,CLR,0.00,991.00,VWS V14.01,2013-06-18 18:24:00,
2013-06-18 13:29:00,70.8,45.3,30.03,WSW,250,1.0,4.0,40,0.00,,CLR,0.00,988.00,VWS V14.01,2013-06-18 18:29:00,
2013-06-18 13:34:00,71.1,48.7,30.03,South,186,0.0,3.0,45,0.00,,CLR,0.00,986.00,VWS V14.01,2013-06-18 18:34:00,
2013-06-18 13:39:00,71.5,43.2,30.03,SSE,155,0.0,4.0,36,0.00,,CLR,0.00,986.00,VWS V14.01,2013-06-18 18:39:00,
2013-06-18 13:44:00,71.6,44.7,30.03,NNE,15,1.0,5.0,38,0.00,,CLR,0.00,986.00,VWS V14.01,2013-06-18 18:44:00,
2013-06-18 13:49:00,71.9,47.0,30.03,South,174,2.0,5.0,41,0.00,,CLR,0.00,986.00,VWS V14.01,2013-06-18 18:49:00,
2013-06-18 13:54:00,71.9,46.3,30.03,West,281,0.0,5.0,40,0.00,,CLR,0.00,984.00,VWS V14.01,2013-06-18 18:54:00,
2013-06-18 13:59:00,71.7,46.1,30.03,NW,312,4.0,6.0,40,0.00,,CLR,0.00,979.00,VWS V14.01,2013-06-18 18:59:00,
2013-06-18 14:04:00,71.2,45.0,30.03,SSE,161,2.0,9.0,39,0.00,,CLR,0.00,974.00,VWS V14.01,2013-06-18 19:04:00,
2013-06-18 14:09:00,71.5,45.9,30.03,NW,316,0.0,9.0,40,0.00,,CLR,0.00,967.00,VWS V14.01,2013-06-18 19:09:00,
2013-06-18 14:14:00,71.8,46.9,30.03,NNE,30,0.0,9.0,41,0.00,,CLR,0.00,965.00,VWS V14.01,2013-06-18 19:14:00,
2013-06-18 14:19:00,71.6,46.0,30.03,ESE,109,2.0,9.0,40,0.00,,CLR,0.00,960.00,VWS V14.01,2013-06-18 19:19:00,
2013-06-18 14:24:00,71.9,44.9,30.03,SE,142,1.0,9.0,38,0.00,,CLR,0.00,960.00,VWS V14.01,2013-06-18 19:24:00,
2013-06-18 14:29:00,72.2,48.5,30.02,SE,144,0.0,9.0,43,0.00,,CLR,0.00,954.00,VWS V14.01,2013-06-18 19:29:00,
2013-06-18 14:34:00,72.6,50.1,30.02,SE,138,2.0,2.0,45,0.00,,CLR,0.00,949.00,VWS V14.01,2013-06-18 19:34:00,
2013-06-18 14:39:00,73.2,46.8,30.02,NW,306,1.0,3.0,39,0.00,,CLR,0.00,946.00,VWS V14.01,2013-06-18 19:39:00,
2013-06-18 14:44:00,73.6,48.5,30.02,NW,309,0.0,3.0,41,0.00,,CLR,0.00,939.00,VWS V14.01,2013-06-18 19:44:00,
2013-06-18 14:49:00,73.7,47.9,30.02,SSW,202,1.0,4.0,40,0.00,,CLR,0.00,930.00,VWS V14.01,2013-06-18 19:49:00,
2013-06-18 14:54:00,73.4,48.3,30.02,NW,317,1.0,4.0,41,0.00,,CLR,0.00,921.00,VWS V14.01,2013-06-18 19:54:00,
2013-06-18 14:59:00,73.5,47.0,30.02,NW,317,1.0,4.0,39,0.00,,CLR,0.00,916.00,VWS V14.01,2013-06-18 19:59:00,
2013-06-18 15:04:00,73.5,47.7,30.02,NW,308,2.0,4.0,40,0.00,,CLR,0.00,909.00,VWS V14.01,2013-06-18 20:04:00,
2013-06-18 15:09:00,73.9,51.2,30.02,WSW,255,0.0,4.0,45,0.00,,CLR,0.00,902.00,VWS V14.01,2013-06-18 20:09:00,
2013-06-18 15:14:00,74.2,47.7,30.02,SE,134,0.0,4.0,39,0.00,,CLR,0.00,895.00,VWS V14.01,2013-06-18 20:14:00,
2013-06-18 15:19:00,73.9,50.0,30.02,SSW,198,2.0,4.0,43,0.00,,CLR,0.00,884.00,VWS V14.01,2013-06-18 20:19:00,
2013-06-18 15:24:00,74.0,50.1,30.01,South,186,0.0,4.0,43,0.00,,CLR,0.00,872.00,VWS V14.01,2013-06-18 20:24:00,
2013-06-18 15:29:00,74.0,47.5,30.01,ENE,57,0.0,4.0,39,0.00,,CLR,0.00,863.00,VWS V14.01,2013-06-18 20:29:00,
2013-06-18 15:34:00,74.0,51.9,30.01,NW,311,1.0,4.0,46,0.00,,CLR,0.00,853.00,VWS V14.01,2013-06-18 20:34:00,
2013-06-18 15:39:00,73.8,45.9,30.01,ESE,118,1.0,4.0,37,0.00,,CLR,0.00,844.00,VWS V14.01,2013-06-18 20:39:00,
2013-06-18 15:44:00,73.5,49.7,30.01,ESE,104,0.0,4.0,43,0.00,,CLR,0.00,831.00,VWS V14.01,2013-06-18 20:44:00,
2013-06-18 15:49:00,73.4,47.0,30.01,ESE,107,1.0,4.0,39,0.00,,CLR,0.00,824.00,VWS V14.01,2013-06-18 20:49:00,
2013-06-18 15:54:00,73.3,51.3,30.01,SSW,198,1.0,4.0,46,0.00,,CLR,0.00,812.00,VWS V14.01,2013-06-18 20:54:00,
2013-06-18 15:59:00,73.5,47.7,30.01,SE,128,0.0,1.0,40,0.00,,CLR,0.00,802.00,VWS V14.01,2013-06-18 20:59:00,
2013-06-18 16:04:00,73.6,51.0,30.01,ESE,122,1.0,4.0,45,0.00,,CLR,0.00,788.00,VWS V14.01,2013-06-18 21:04:00,
2013-06-18 16:09:00,73.6,51.6,30.01,SE,130,3.0,4.0,46,0.00,,CLR,0.00,779.00,VWS V14.01,2013-06-18 21:09:00,
2013-06-18 16:14:00,73.3,46.9,30.01,SE,130,0.0,4.0,39,0.00,,CLR,0.00,763.00,VWS V14.01,2013-06-18 21:14:00,
2013-06-18 16:19:00,73.5,51.5,30.01,SSE,168,0.0,4.0,46,0.00,,CLR,0.00,752.00,VWS V14.01,2013-06-18 21:19:00,
2013-06-18 16:24:00,73.8,51.8,30.01,SE,144,0.0,4.0,46,0.00,,CLR,0.00,742.00,VWS V14.01,2013-06-18 21:24:00,
2013-06-18 16:29:00,74.1,53.2,30.00,SE,144,0.0,4.0,48,0.00,,CLR,0.00,729.00,VWS V14.01,2013-06-18 21:29:00,
2013-06-18 16:34:00,74.3,49.1,30.00,East,98,0.0,5.0,41,0.00,,CLR,0.00,715.00,VWS V14.01,2013-06-18 21:34:00,
2013-06-18 16:39:00,73.5,47.0,30.00,ESE,105,0.0,5.0,39,0.00,,CLR,0.00,701.00,VWS V14.01,2013-06-18 21:39:00,
2013-06-18 16:44:00,73.1,48.0,30.00,ESE,107,0.0,5.0,41,0.00,,CLR,0.00,689.00,VWS V14.01,2013-06-18 21:44:00,
2013-06-18 16:49:00,73.3,53.6,30.00,SSE,166,0.0,5.0,50,0.00,,CLR,0.00,675.00,VWS V14.01,2013-06-18 21:49:00,
2013-06-18 16:54:00,73.3,50.1,30.00,SSW,202,2.0,5.0,44,0.00,,CLR,0.00,661.00,VWS V14.01,2013-06-18 21:54:00,
2013-06-18 16:59:00,73.6,51.6,30.00,South,187,2.0,2.0,46,0.00,,CLR,0.00,649.00,VWS V14.01,2013-06-18 21:59:00,
2013-06-18 17:04:00,73.7,52.2,30.00,South,173,2.0,5.0,47,0.00,,CLR,0.00,633.00,VWS V14.01,2013-06-18 22:04:00,
2013-06-18 17:09:00,73.7,50.5,30.00,East,100,0.0,5.0,44,0.00,,CLR,0.00,619.00,VWS V14.01,2013-06-18 22:09:00,
2013-06-18 17:14:00,73.5,50.3,29.99,SSE,158,0.0,5.0,44,0.00,,CLR,0.00,606.00,VWS V14.01,2013-06-18 22:14:00,
2013-06-18 17:19:00,73.2,49.4,29.99,ESE,122,1.0,5.0,43,0.00,,CLR,0.00,587.00,VWS V14.01,2013-06-18 22:19:00,
2013-06-18 17:24:00,73.2,52.9,29.99,ESE,113,0.0,5.0,49,0.00,,CLR,0.00,573.00,VWS V14.01,2013-06-18 22:24:00,
2013-06-18 17:29:00,73.3,53.6,29.99,ESE,109,0.0,0.0,50,0.00,,CLR,0.00,557.00,VWS V14.01,2013-06-18 22:29:00,
2013-06-18 17:34:00,73.2,49.4,29.99,SSE,160,0.0,4.0,43,0.00,,CLR,0.00,543.00,VWS V14.01,2013-06-18 22:34:00,
2013-06-18 17:39:00,73.2,51.2,29.99,SSE,153,1.0,4.0,46,0.00,,CLR,0.00,529.00,VWS V14.01,2013-06-18 22:39:00,
2013-06-18 17:44:00,73.3,51.9,29.99,ESE,104,0.0,4.0,47,0.00,,CLR,0.00,510.00,VWS V14.01,2013-06-18 22:44:00,
2013-06-18 17:49:00,73.4,54.2,29.98,SSW,196,1.0,4.0,51,0.00,,CLR,0.00,497.00,VWS V14.01,2013-06-18 22:49:00,
2013-06-18 17:54:00,73.6,53.3,29.99,SSW,196,1.0,4.0,49,0.00,,CLR,0.00,482.00,VWS V14.01,2013-06-18 22:54:00,
2013-06-18 17:59:00,73.5,53.7,29.98,SE,131,0.0,0.0,50,0.00,,CLR,0.00,462.00,VWS V14.01,2013-06-18 22:59:00,
2013-06-18 18:04:00,73.5,53.2,29.99,ESE,109,1.0,4.0,49,0.00,,CLR,0.00,448.00,VWS V14.01,2013-06-18 23:04:00,
2013-06-18 18:09:00,73.3,51.3,29.99,South,191,1.0,4.0,46,0.00,,CLR,0.00,434.00,VWS V14.01,2013-06-18 23:09:00,
2013-06-18 18:14:00,73.0,52.7,29.99,SE,139,0.0,4.0,49,0.00,,CLR,0.00,415.00,VWS V14.01,2013-06-18 23:14:00,
2013-06-18 18:19:00,73.1,54.5,29.99,ENE,75,1.0,4.0,52,0.00,,CLR,0.00,404.00,VWS V14.01,2013-06-18 23:19:00,
2013-06-18 18:24:00,73.3,53.0,29.98,East,92,0.0,4.0,49,0.00,,CLR,0.00,390.00,VWS V14.01,2013-06-18 23:24:00,
2013-06-18 18:29:00,73.2,54.0,29.98,East,92,1.0,1.0,51,0.00,,CLR,0.00,374.00,VWS V14.01,2013-06-18 23:29:00,
2013-06-18 18:34:00,73.0,52.2,29.98,East,92,0.0,1.0,48,0.00,,CLR,0.00,355.00,VWS V14.01,2013-06-18 23:34:00,
2013-06-18 18:39:00,73.1,53.9,29.98,East,92,0.0,1.0,51,0.00,,CLR,0.00,338.00,VWS V14.01,2013-06-18 23:39:00,
2013-06-18 18:44:00,73.3,53.0,29.98,East,92,0.0,1.0,49,0.00,,CLR,0.00,322.00,VWS V14.01,2013-06-18 23:44:00,
2013-06-18 18:49:00,73.1,52.8,29.98,East,93,0.0,1.0,49,0.00,,CLR,0.00,306.00,VWS V14.01,2013-06-18 23:49:00,
2013-06-18 18:54:00,72.6,52.4,29.98,ENE,67,0.0,2.0,49,0.00,,CLR,0.00,297.00,VWS V14.01,2013-06-18 23:54:00,
2013-06-18 18:59:00,72.3,52.6,29.98,SSW,200,0.0,1.0,50,0.00,,CLR,0.00,283.00,VWS V14.01,2013-06-18 23:59:00,
2013-06-18 19:04:00,72.2,51.4,29.98,SE,124,0.0,2.0,48,0.00,,CLR,0.00,269.00,VWS V14.01,2013-06-19 00:04:00,
2013-06-18 19:09:00,72.1,53.0,29.98,SE,132,0.0,2.0,51,0.00,,CLR,0.00,253.00,VWS V14.01,2013-06-19 00:09:00,
2013-06-18 19:14:00,72.2,55.7,29.98,SE,132,1.0,2.0,56,0.00,,CLR,0.00,236.00,VWS V14.01,2013-06-19 00:14:00,
2013-06-18 19:19:00,72.0,51.8,29.98,ENE,68,0.0,2.0,49,0.00,,CLR,0.00,223.00,VWS V14.01,2013-06-19 00:19:00,
2013-06-18 19:24:00,72.0,55.0,29.98,ENE,68,0.0,2.0,55,0.00,,CLR,0.00,209.00,VWS V14.01,2013-06-19 00:24:00,
2013-06-18 19:29:00,72.0,52.4,29.98,ENE,68,0.0,0.0,50,0.00,,CLR,0.00,197.00,VWS V14.01,2013-06-19 00:29:00,
2013-06-18 19:34:00,72.1,54.0,29.98,ENE,72,0.0,1.0,53,0.00,,CLR,0.00,179.00,VWS V14.01,2013-06-19 00:34:00,
2013-06-18 19:39:00,72.1,54.0,29.98,ENE,61,0.0,1.0,53,0.00,,CLR,0.00,171.00,VWS V14.01,2013-06-19 00:39:00,
2013-06-18 19:44:00,72.0,51.8,29.98,ENE,57,0.0,1.0,49,0.00,,CLR,0.00,155.00,VWS V14.01,2013-06-19 00:44:00,
2013-06-18 19:49:00,71.9,51.7,29.98,ENE,59,0.0,1.0,49,0.00,,CLR,0.00,141.00,VWS V14.01,2013-06-19 00:49:00,
2013-06-18 19:54:00,72.0,52.9,29.98,ENE,67,0.0,1.0,51,0.00,,CLR,0.00,127.00,VWS V14.01,2013-06-19 00:54:00,
2013-06-18 19:59:00,71.7,52.1,29.99,ENE,67,0.0,0.0,50,0.00,,CLR,0.00,111.00,VWS V14.01,2013-06-19 00:59:00,
2013-06-18 20:04:00,71.5,51.9,29.98,ENE,67,0.0,0.0,50,0.00,,CLR,0.00,98.00,VWS V14.01,2013-06-19 01:04:00,
2013-06-18 20:09:00,71.2,52.2,29.99,ENE,67,0.0,0.0,51,0.00,,CLR,0.00,86.00,VWS V14.01,2013-06-19 01:09:00,
2013-06-18 20:14:00,71.0,53.0,29.99,ENE,67,0.0,0.0,53,0.00,,CLR,0.00,74.00,VWS V14.01,2013-06-19 01:14:00,
2013-06-18 20:19:00,70.6,52.7,29.98,ENE,67,0.0,0.0,53,0.00,,CLR,0.00,63.00,VWS V14.01,2013-06-19 01:19:00,
2013-06-18 20:24:00,70.2,52.3,29.98,ENE,67,0.0,0.0,53,0.00,,CLR,0.00,51.00,VWS V14.01,2013-06-19 01:24:00,
2013-06-18 20:29:00,69.7,52.8,29.99,ENE,67,0.0,0.0,55,0.00,,CLR,0.00,40.00,VWS V14.01,2013-06-19 01:29:00,
2013-06-18 20:34:00,69.1,52.8,29.99,ENE,67,0.0,0.0,56,0.00,,CLR,0.00,32.00,VWS V14.01,2013-06-19 01:34:00,
2013-06-18 20:39:00,68.4,53.5,29.99,ENE,67,0.0,0.0,59,0.00,,CLR,0.00,23.00,VWS V14.01,2013-06-19 01:39:00,
2013-06-18 20:44:00,67.5,53.1,29.99,ENE,67,0.0,0.0,60,0.00,,CLR,0.00,14.00,VWS V14.01,2013-06-19 01:44:00,
2013-06-18 20:49:00,66.7,52.8,29.99,ENE,67,0.0,0.0,61,0.00,,CLR,0.00,9.00,VWS V14.01,2013-06-19 01:49:00,
2013-06-18 20:54:00,65.9,52.5,29.99,ENE,67,0.0,0.0,62,0.00,,CLR,0.00,5.00,VWS V14.01,2013-06-19 01:54:00,
2013-06-18 20:59:00,65.2,51.9,29.99,ENE,67,0.0,0.0,62,0.00,,CLR,0.00,0.00,VWS V14.01,2013-06-19 01:59:00,
2013-06-18 21:05:00,64.7,52.3,29.99,ENE,67,0.0,0.0,64,0.00,,CLR,0.00,0.00,VWS V14.01,2013-06-19 02:05:00,
2013-06-18 21:10:00,64.2,53.4,29.99,ENE,67,0.0,0.0,68,0.00,,CLR,0.00,0.00,VWS V14.01,2013-06-19 02:10:00,
2013-06-18 21:15:00,63.6,53.3,29.99,ENE,67,0.0,0.0,69,0.00,,CLR,0.00,0.00,VWS V14.01,2013-06-19 02:15:00,
2013-06-18 21:20:00,63.1,53.2,29.99,ENE,67,0.0,0.0,70,0.00,,CLR,0.00,0.00,VWS V14.01,2013-06-19 02:20:00,
2013-06-18 21:25:00,62.7,53.9,29.99,ENE,67,0.0,0.0,73,0.00,,CLR,0.00,0.00,VWS V14.01,2013-06-19 02:25:00,
2013-06-18 21:30:00,62.0,53.6,29.99,ENE,67,0.0,0.0,74,0.00,,CLR,0.00,0.00,VWS V14.01,2013-06-19 02:30:00,
2013-06-18 21:35:00,61.4,53.0,29.99,ENE,67,0.0,0.0,74,0.00,,CLR,0.00,0.00,VWS V14.01,2013-06-19 02:35:00,
2013-06-18 21:40:00,60.9,52.9,29.99,ENE,67,0.0,0.0,75,0.00,,CLR,0.00,0.00,VWS V14.01,2013-06-19 02:40:00,
2013-06-18 21:45:00,60.7,53.5,29.99,ENE,67,0.0,0.0,77,0.00,,CLR,0.00,0.00,VWS V14.01,2013-06-19 02:45:00,
2013-06-18 21:50:00,60.5,53.6,30.00,ENE,67,0.0,0.0,78,0.00,,CLR,0.00,0.00,VWS V14.01,2013-06-19 02:50:00,
2013-06-18 21:55:00,60.2,53.7,30.00,ENE,67,0.0,0.0,79,0.00,,CLR,0.00,0.00,VWS V14.01,2013-06-19 02:55:00,
2013-06-18 22:00:00,60.0,53.5,30.00,ENE,67,0.0,0.0,79,0.00,,CLR,0.00,0.00,VWS V14.01,2013-06-19 03:00:00,
2013-06-18 22:05:00,59.8,53.6,30.00,ENE,67,0.0,0.0,80,0.00,,CLR,0.00,0.00,VWS V14.01,2013-06-19 03:05:00,
2013-06-18 22:10:00,59.5,53.7,30.00,ENE,67,0.0,0.0,81,0.00,,CLR,0.00,0.00,VWS V14.01,2013-06-19 03:10:00,
2013-06-18 22:15:00,59.3,53.8,30.00,ENE,67,0.0,0.0,82,0.00,,CLR,0.00,0.00,VWS V14.01,2013-06-19 03:15:00,
2013-06-18 22:20:00,59.0,53.5,30.00,ENE,67,0.0,0.0,82,0.00,,CLR,0.00,0.00,VWS V14.01,2013-06-19 03:20:00,
2013-06-18 22:25:00,58.9,53.8,30.00,ENE,67,0.0,0.0,83,0.00,,CLR,0.00,0.00,VWS V14.01,2013-06-19 03:25:00,
2013-06-18 22:30:00,58.7,53.6,30.00,ENE,67,0.0,0.0,83,0.00,,CLR,0.00,0.00,VWS V14.01,2013-06-19 03:30:00,
2013-06-18 22:35:00,58.6,53.5,30.00,ENE,67,0.0,0.0,83,0.00,,CLR,0.00,0.00,VWS V14.01,2013-06-19 03:35:00,
2013-06-18 22:40:00,58.4,53.6,30.00,ENE,67,0.0,0.0,84,0.00,,CLR,0.00,0.00,VWS V14.01,2013-06-19 03:40:00,
2013-06-18 22:45:00,58.3,53.8,30.00,ENE,67,0.0,0.0,85,0.00,,CLR,0.00,0.00,VWS V14.01,2013-06-19 03:45:00,
2013-06-18 22:50:00,58.1,53.6,30.00,ENE,67,0.0,0.0,85,0.00,,CLR,0.00,0.00,VWS V14.01,2013-06-19 03:50:00,
2013-06-18 22:55:00,58.0,53.5,30.00,ENE,67,0.0,0.0,85,0.00,,CLR,0.00,0.00,VWS V14.01,2013-06-19 03:55:00,
2013-06-18 23:00:00,57.9,53.4,30.00,ENE,67,0.0,0.0,85,0.00,,CLR,0.00,0.00,VWS V14.01,2013-06-19 04:00:00,
2013-06-18 23:01:00,57.9,53.4,30.00,ENE,67,0.0,0.0,85,0.00,,CLR,0.00,0.00,VWS V14.01,2013-06-19 04:01:00,
2013-06-18 23:06:00,57.8,53.3,30.00,ENE,67,0.0,0.0,85,0.00,,CLR,0.00,0.00,VWS V14.01,2013-06-19 04:06:00,
2013-06-18 23:11:00,57.6,53.1,30.00,ENE,67,0.0,0.0,85,0.00,,CLR,0.00,0.00,VWS V14.01,2013-06-19 04:11:00,
2013-06-18 23:16:00,57.6,53.1,30.00,ENE,67,0.0,0.0,85,0.00,,CLR,0.00,0.00,VWS V14.01,2013-06-19 04:16:00,
2013-06-18 23:21:00,57.5,53.0,30.00,ENE,67,0.0,0.0,85,0.00,,CLR,0.00,0.00,VWS V14.01,2013-06-19 04:21:00,
2013-06-18 23:26:00,57.5,53.3,30.00,ENE,67,0.0,0.0,86,0.00,,CLR,0.00,0.00,VWS V14.01,2013-06-19 04:26:00,
2013-06-18 23:31:00,57.4,53.2,30.00,ENE,67,0.0,0.0,86,0.00,,CLR,0.00,0.00,VWS V14.01,2013-06-19 04:31:00,
2013-06-18 23:36:00,57.5,53.3,30.00,ENE,67,0.0,0.0,86,0.00,,CLR,0.00,0.00,VWS V14.01,2013-06-19 04:36:00,
2013-06-18 23:41:00,57.6,53.1,30.00,ENE,67,0.0,1.0,85,0.00,,CLR,0.00,0.00,VWS V14.01,2013-06-19 04:41:00,
2013-06-18 23:46:00,57.6,53.1,30.00,ENE,67,0.0,1.0,85,0.00,,CLR,0.00,0.00,VWS V14.01,2013-06-19 04:46:00,
2013-06-18 23:51:00,57.7,52.9,30.01,ENE,67,0.0,1.0,84,0.00,,CLR,0.00,0.00,VWS V14.01,2013-06-19 04:51:00,
2013-06-18 23:56:00,58.2,52.7,30.01,ENE,67,0.0,1.0,82,0.00,,CLR,0.00,0.00,VWS V14.01,2013-06-19 04:56:00,